Theta_e
303 302 302 302 301 301 301 301 301 301 302 295 295 297 289 288 285 297 301 303 299 291 284 286 285 283 285 289 288 289 288 287 289 288 290 290 294 293 291 290 289 291 290 291 289 290 286 288 285 287 291 290 290 290 292 293 292 292 288 291 290 306 287 285 287 289 289 292 293 294 294 294 290 291 290 289 287 287 285 281 282 283 285 284 282 284 290
303 302 302 302 301 301 301 302 301 301 301 295 296 292 287 288 288 291 301 304 299 288 279 280 282 284 287 287 287 290 289 288 288 288 289 289 291 290 290 292 293 290 294 292 288 292 279 289 290 287 291 289 295 293 291 293 291 291 290 289 297 287 287 286 283 282 283 288 289 289 293 293 288 286 289 289 289 290 289 288 287 286 286 287 285 282 288
302 302 302 301 302 301 302 302 301 301 302 301 296 289 290 289 292 292 296 299 296 285 288 285 283 284 284 285 284 286 287 290 290 289 288 291 291 291 289 292 295 294 293 291 292 293 288 284 291 291 292 292 296 295 291 293 291 294 298 304 299 289 286 285 281 278 276 275 278 279 281 287 287 289 289 290 289 288 287 284 283 281 288 288 285 286 295
302 301 302 302 302 302 301 301 301 301 302 302 296 293 289 286 281 286 289 294 293 291 294 289 287 285 285 283 286 287 285 289 292 292 290 291 292 292 291 294 294 292 292 289 290 290 293 288 287 290 289 293 296 296 298 295 293 299 310 305 298 289 291 287 284 283 281 282 287 289 287 288 283 287 288 290 290 289 288 284 282 282 285 285 292 294 293
302 302 302 302 302 302 302 301 301 302 302 302 297 294 290 289 282 284 282 288 289 287 290 288 288 283 288 282 289 286 287 289 291 296 290 293 292 293 290 290 288 288 289 287 288 290 290 293 291 292 292 296 296 299 299 300 300 309 307 302 294 292 287 288 288 288 288 288 291 291 290 287 287 287 287 288 288 289 288 286 283 289 290 286 295 297 294
302 302 302 302 302 303 303 302 302 302 302 303 299 288 292 283 286 286 291 286 282 283 284 288 287 288 289 284 288 285 285 286 285 292 293 294 294 287 289 290 288 289 288 289 284 286 288 289 285 296 296 294 294 294 298 297 302 308 300 301 296 289 285 287 288 288 292 293 293 293 290 289 290 289 289 290 290 290 287 286 290 292 287 287 295 297 295
302 302 302 302 302 302 302 302 302 303 302 302 296 287 292 290 287 287 293 286 289 288 289 291 288 287 287 285 286 284 285 284 288 290 290 291 291 291 280 286 290 289 293 289 284 288 282 282 291 293 292 292 290 288 292 295 300 301 296 296 297 293 285 288 290 289 293 295 295 294 294 294 296 295 295 294 290 289 292 292 294 292 291 297 297 297 296
302 303 302 303 302 302 302 302 302 303 302 301 295 293 287 285 284 285 291 290 288 289 290 290 289 285 290 283 285 286 285 284 288 293 290 283 287 293 287 288 291 292 292 290 285 288 290 290 287 294 293 289 290 289 292 291 296 295 294 297 296 293 285 293 290 286 290 293 295 296 295 294 291 293 293 294 294 295 294 294 295 298 297 297 296 295 293
302 302 303 303 303 302 302 302 302 302 302 297 295 293 294 292 293 292 286 284 287 290 291 289 288 285 286 285 288 289 288 287 294 292 295 291 288 291 289 293 293 295 293 292 290 293 293 295 294 296 295 288 294 291 290 297 293 295 293 295 296 294 287 290 287 283 284 291 292 293 293 292 290 289 290 291 291 291 292 291 294 296 294 295 295 291 291
303 303 303 303 302 302 302 302 302 302 302 297 295 291 298 297 299 297 291 284 290 289 292 290 289 284 287 290 291 290 290 292 293 284 292 295 295 294 294 294 293 292 293 292 294 296 295 296 301 302 302 300 298 299 299 298 295 292 292 295 291 292 289 283 283 283 282 290 290 290 289 287 284 283 289 292 292 293 293 295 296 299 299 293 290 292 297
303 303 303 303 302 302 302 302 302 302 298 294 293 293 295 293 291 293 294 285 286 290 289 289 288 290 292 293 291 294 292 293 293 286 284 294 295 298 296 294 291 288 291 296 302 305 305 304 304 305 303 301 298 300 301 301 300 297 294 291 291 295 293 286 286 284 284 288 287 285 282 279 282 292 295 295 291 292 291 290 293 293 297 296 299 297 298
303 303 302 302 302 302 302 302 302 302 301 298 298 294 297 299 296 295 288 283 284 291 287 286 288 289 289 291 292 292 292 293 292 295 291 294 296 297 296 294 293 285 297 306 305 305 305 307 306 304 304 301 300 301 301 298 299 298 297 293 291 291 290 286 285 283 283 284 284 281 277 278 292 296 297 296 295 294 292 293 294 295 297 297 296 297 297
303 303 302 302 302 302 302 302 302 302 302 299 297 293 297 300 295 293 290 285 284 286 285 287 290 290 291 291 291 293 295 295 296 296 295 293 293 295 295 294 293 295 305 304 304 304 298 294 295 297 297 299 298 298 298 298 298 298 298 297 293 287 289 284 285 281 283 282 281 276 275 288 294 294 296 298 296 295 295 292 294 296 297 297 296 297 298
303 303 302 302 302 302 302 302 302 302 302 301 296 296 298 299 294 293 292 285 285 287 287 286 289 288 289 290 291 293 294 293 295 296 293 296 293 293 296 298 300 304 305 305 301 298 290 288 285 287 288 289 288 288 292 296 297 297 297 297 296 293 289 288 284 283 282 281 283 283 289 290 291 290 291 290 288 290 288 286 289 295 298 298 296 295 295
302 302 302 302 302 302 302 302 302 302 302 302 299 297 297 299 298 294 296 292 285 287 287 283 287 287 288 289 291 289 290 291 290 287 294 296 295 298 299 302 305 305 306 302 295 293 286 287 284 284 284 283 280 282 292 290 296 298 297 296 295 294 292 287 286 282 282 283 282 282 282 280 286 293 295 297 298 297 296 292 288 294 296 298 296 294 294
302 302 302 302 301 301 301 302 302 302 302 302 299 297 297 299 300 299 296 292 287 283 287 291 292 291 288 289 292 290 289 287 288 291 292 294 297 300 303 305 305 306 305 302 295 287 285 285 284 284 282 282 287 285 283 290 288 296 297 296 295 294 293 289 287 283 282 281 280 279 278 280 286 292 295 298 299 298 296 290 285 293 295 297 296 294 294
301 301 301 301 301 301 301 302 302 302 302 302 298 297 296 301 300 298 294 294 291 285 294 295 293 293 293 290 292 292 295 287 290 285 286 288 295 298 300 305 306 305 302 296 292 285 284 284 283 284 286 290 285 284 289 286 283 287 291 294 292 290 284 286 284 281 279 280 280 280 280 283 289 294 296 298 299 298 292 282 284 292 295 296 296 294 294
302 301 301 301 301 301 301 301 302 302 302 303 300 296 296 299 301 300 297 295 289 288 293 297 296 293 291 293 292 297 300 298 296 294 290 294 296 298 298 301 298 303 303 290 288 283 282 281 282 282 283 290 292 290 282 285 280 282 283 283 283 284 283 283 283 281 282 283 283 283 284 287 293 297 299 298 299 292 283 281 285 294 296 297 296 295 296
301 301 302 301 301 301 301 301 302 302 302 302 300 298 297 300 300 300 296 295 294 286 294 299 300 296 297 300 298 300 300 299 298 287 286 285 292 300 301 304 301 290 298 289 287 283 282 284 289 283 282 284 289 282 288 281 282 286 288 285 285 283 281 284 284 283 282 280 282 284 285 289 296 298 301 301 294 283 283 287 294 296 296 297 297 295 296
302 302 301 301 301 301 301 301 302 302 302 302 300 294 296 299 300 300 297 292 294 292 295 296 297 296 301 299 297 296 296 298 299 293 289 287 296 299 295 289 293 294 291 289 284 289 285 283 283 287 282 283 287 290 286 288 292 287 287 288 284 284 281 282 282 283 281 280 282 284 283 290 298 298 297 298 287 285 289 292 296 297 296 296 295 296 296
302 301 301 301 301 301 301 302 302 302 302 302 301 296 294 299 301 301 300 297 292 289 291 299 299 298 299 299 300 301 299 295 296 295 298 297 299 292 285 285 288 289 288 285 285 285 286 284 286 284 288 285 289 288 286 285 288 293 291 287 286 288 283 282 281 285 282 281 281 283 288 292 297 296 288 292 292 295 295 296 293 296 296 295 295 296 296
302 301 301 301 301 301 301 301 302 302 302 302 301 297 293 297 299 300 301 299 292 289 293 298 300 299 301 302 302 302 302 301 302 303 299 293 298 295 292 296 295 293 294 294 288 289 291 288 292 286 285 288 290 286 288 283 282 287 293 292 286 293 287 286 285 287 284 283 285 291 293 294 294 294 292 294 295 296 297 296 295 294 295 297 296 295 294
302 301 301 301 301 301 301 301 302 302 302 303 301 296 293 295 295 299 298 293 296 297 299 298 300 301 303 304 304 305 305 305 305 304 304 299 287 293 297 294 293 299 299 295 289 289 290 290 285 289 287 287 287 285 288 284 284 288 284 293 290 295 295 294 292 288 294 295 294 294 293 293 294 295 295 295 295 296 296 295 294 295 296 297 295 294 294
302 302 301 301 301 301 302 302 302 302 302 303 302 297 295 296 297 296 295 295 292 290 295 299 295 291 298 300 304 306 305 305 305 306 308 304 291 287 292 296 300 298 296 297 299 294 291 288 292 290 285 290 292 284 284 284 285 290 288 287 290 292 296 293 290 293 290 285 293 292 291 292 294 294 295 296 296 295 296 295 295 295 295 295 296 295 295
302 301 301 302 302 302 302 302 303 302 303 303 302 302 301 298 297 296 293 287 287 288 287 290 291 299 304 307 307 303 304 306 308 307 308 307 302 297 295 299 302 299 297 298 300 294 286 287 290 286 285 292 292 287 291 287 287 291 285 287 288 289 297 291 291 291 287 289 293 293 293 293 294 295 293 293 294 294 295 295 295 295 296 296 296 296 295
301 301 301 302 302 302 303 303 303 303 303 303 303 299 297 296 297 298 296 295 294 293 288 287 294 304 306 304 302 304 307 306 305 307 308 305 305 305 303 303 301 302 301 298 297 290 287 288 288 288 288 289 295 286 286 290 291 292 288 287 291 293 294 285 290 289 292 294 294 293 294 294 293 294 294 294 294 294 294 295 295 295 295 295 296 296 296
301 301 301 301 302 302 303 303 304 303 303 303 302 300 299 299 299 297 294 295 291 286 288 286 291 299 303 300 304 306 306 305 305 304 303 304 304 303 302 300 299 298 297 295 294 288 286 287 286 289 290 290 293 291 291 290 290 285 285 291 294 291 286 292 291 287 287 288 290 293 288 287 291 292 293 294 295 295 294 294 294 294 294 295 295 295 296
301 301 301 301 302 303 303 304 304 304 304 304 303 301 300 299 299 299 299 297 294 288 287 287 291 297 303 300 303 302 303 304 304 303 302 302 302 301 300 299 298 297 294 291 292 289 286 289 289 287 287 290 288 289 289 289 288 286 288 291 294 291 292 291 288 288 287 293 294 294 294 293 294 294 294 295 295 295 294 293 294 294 295 295 295 294 294
301 301 301 302 302 303 303 304 304 304 304 303 300 298 298 299 300 301 301 302 299 297 292 292 295 293 289 296 302 301 303 303 302 300 300 300 300 299 298 298 296 295 291 287 285 285 285 288 286 289 290 294 291 287 286 285 283 283 289 294 294 293 295 294 294 295 295 296 295 295 294 292 293 295 295 295 296 295 294 295 295 295 295 296 295 295 294
301 301 302 302 303 303 303 304 304 303 304 300 297 294 289 295 301 300 302 304 302 300 291 288 287 285 297 300 298 299 301 302 301 301 300 298 298 297 298 296 295 295 294 288 286 287 287 286 284 290 296 295 288 285 283 285 284 288 293 294 295 296 296 295 297 296 293 296 296 295 295 294 295 296 297 297 297 296 295 295 295 295 296 296 295 295 295
301 301 302 302 303 303 304 304 304 304 303 298 295 285 285 286 297 305 305 305 303 299 289 288 289 290 291 297 299 297 299 300 299 298 298 298 297 297 297 295 294 294 288 287 288 288 285 286 286 290 295 294 286 283 284 283 283 286 292 292 293 295 295 295 296 297 297 296 296 296 295 294 295 296 295 296 296 296 296 296 297 297 297 296 296 296 295
301 301 302 302 303 303 303 304 304 304 300 297 291 288 292 298 300 302 303 303 302 296 289 286 285 284 286 287 295 301 300 302 303 298 293 297 296 298 297 297 293 295 292 286 287 284 287 286 286 290 290 293 289 282 283 285 286 286 292 292 294 295 296 295 295 296 297 297 296 293 292 292 294 293 292 296 296 297 296 296 297 297 297 297 296 296 295
301 302 302 302 303 303 304 304 305 303 298 300 303 303 303 303 303 303 303 299 298 291 294 290 286 287 285 290 296 297 301 297 295 293 291 294 297 293 290 294 292 291 298 289 286 285 289 284 284 287 292 290 285 284 286 287 289 293 293 293 294 295 295 296 296 296 296 297 297 292 290 291 292 295 296 296 296 296 296 296 296 297 296 295 295 294 294
301 301 302 302 303 304 304 305 305 304 303 299 296 297 302 304 303 304 300 298 294 294 293 290 285 285 285 289 291 292 298 293 291 290 286 293 296 291 290 289 290 287 291 289 287 287 287 285 286 285 284 286 284 286 285 290 293 293 294 294 295 295 296 295 295 295 295 295 295 296 295 295 296 296 296 296 295 296 297 296 296 295 294 294 293 293 294
301 301 302 302 303 304 304 304 297 296 293 295 297 301 302 306 305 305 302 298 289 288 290 288 288 284 284 283 281 286 297 292 288 290 286 292 294 293 290 286 285 285 289 291 285 284 285 287 288 285 285 282 281 284 286 291 292 294 294 294 295 296 295 294 293 295 295 295 295 295 295 295 295 294 294 295 295 295 295 294 294 294 293 293 293 293 294
300 301 302 303 304 304 300 302 297 297 296 295 297 303 306 308 307 302 300 301 297 289 287 286 287 285 283 281 282 286 295 290 290 291 292 286 286 292 289 284 284 288 290 285 285 284 283 290 284 282 279 280 281 283 289 290 292 293 294 294 295 295 293 293 294 295 296 296 295 295 295 295 295 294 295 295 295 294 294 293 293 293 292 292 292 294 294
300 302 303 304 302 298 295 294 301 300 298 300 303 306 306 306 305 304 300 299 301 303 293 286 285 284 286 283 283 285 289 284 287 283 284 285 285 285 284 282 284 284 282 281 282 284 288 290 284 281 281 280 283 288 291 291 293 293 294 295 295 295 295 296 297 296 295 295 295 295 295 294 294 295 295 295 295 295 294 293 292 292 291 291 292 292 292
301 302 299 296 292 286 286 289 298 301 304 303 304 298 296 298 289 288 294 291 295 299 289 292 285 287 288 285 284 289 288 284 286 284 282 284 284 284 284 284 285 284 282 282 286 291 284 283 281 281 284 289 290 291 292 292 292 292 293 294 294 294 295 296 297 296 294 293 292 293 294 294 294 294 294 294 294 294 294 294 294 293 293 293 293 292 291
300 297 295 295 293 287 287 293 300 303 301 301 297 290 286 287 285 285 285 287 289 288 285 289 284 286 285 283 285 288 291 287 282 280 282 285 283 280 283 282 284 283 282 281 285 288 282 282 279 281 284 288 289 291 293 293 293 294 295 296 296 296 296 297 297 296 294 293 293 294 294 293 293 293 295 294 295 295 295 294 294 293 293 293 292 292 292
293 290 288 288 288 289 296 299 301 299 297 291 288 287 285 286 285 283 284 284 283 284 284 285 286 289 290 287 285 286 289 286 282 282 282 283 287 283 283 282 284 281 279 278 281 286 281 279 281 281 283 286 288 290 291 292 294 295 296 297 298 297 297 297 297 297 296 295 296 296 296 295 295 295 295 295 294 293 294 294 294 294 293 292 291 291 291
289 289 287 285 290 292 294 296 297 296 291 286 285 284 284 282 283 285 284 281 281 283 286 287 286 286 288 288 286 284 288 292 289 285 281 281 286 284 281 280 283 279 278 279 283 283 281 278 279 279 282 285 288 290 292 294 294 295 296 297 298 297 296 296 297 297 297 296 296 296 296 295 294 294 295 295 295 294 294 293 293 293 291 290 290 290 290
289 289 291 294 294 295 295 293 291 287 286 287 282 281 283 282 283 284 283 282 281 282 285 287 286 287 287 290 288 289 285 291 288 282 282 282 284 282 280 281 281 277 275 280 282 282 280 277 278 278 281 287 289 292 294 294 295 295 295 296 296 296 296 297 297 297 297 296 295 295 296 296 296 295 295 295 294 293 293 292 291 291 291 290 291 290 290
298 298 297 294 292 287 289 285 285 286 282 281 278 279 280 280 281 282 282 283 286 286 286 293 290 288 290 290 288 288 287 291 287 284 281 281 282 282 279 279 278 277 279 281 281 278 276 276 277 280 285 289 290 292 293 294 294 295 296 296 296 297 297 297 296 296 297 297 296 296 296 296 296 296 296 294 293 291 291 291 291 291 291 291 291 290 289
293 295 293 288 287 285 286 282 286 286 283 283 280 278 278 278 279 280 281 280 280 283 287 289 287 286 284 284 286 283 285 286 286 283 282 282 282 279 278 277 277 279 281 280 278 277 277 277 279 283 288 290 293 293 294 294 295 295 295 296 297 297 296 296 296 296 296 297 297 297 297 296 296 296 296 294 293 291 291 291 291 291 291 290 290 289 289
288 286 287 283 282 284 284 278 285 284 280 281 283 280 279 276 276 277 280 283 288 286 287 289 287 287 283 285 286 285 285 284 284 282 280 281 279 280 277 277 279 280 278 277 276 276 279 278 283 286 289 290 292 293 294 294 295 295 295 295 295 296 296 296 296 296 296 296 296 296 295 294 295 294 293 292 292 292 291 290 291 291 291 290 289 289 288
286 286 283 279 278 280 282 280 282 281 283 284 283 281 281 280 281 283 286 289 288 289 288 288 288 287 286 284 285 284 283 282 280 281 283 281 278 278 280 281 280 277 275 275 274 273 274 278 284 288 291 292 292 293 293 294 294 295 294 293 294 294 295 295 296 295 295 295 295 294 292 291 291 291 291 292 292 292 292 291 291 291 291 290 289 288 288
286 287 287 282 278 281 284 280 281 283 285 284 283 284 286 286 287 288 288 291 290 290 290 290 289 289 286 283 285 284 283 282 280 282 280 277 277 278 282 279 276 274 273 271 271 271 275 280 286 290 291 292 292 293 294 293 293 293 293 293 293 294 294 295 295 295 295 294 293 293 291 291 291 291 291 292 292 292 291 291 291 291 291 290 289 289 288
283 285 285 277 275 280 281 282 284 285 286 287 285 286 287 288 286 287 289 290 291 291 290 288 287 284 284 284 283 282 283 281 280 280 281 280 279 277 273 274 274 275 275 273 271 274 278 284 289 290 292 293 293 293 293 293 293 293 293 292 292 292 293 293 293 294 293 292 291 291 290 290 291 291 292 292 291 291 292 292 292 292 291 290 290 289 288
286 285 282 279 281 283 282 283 285 284 286 286 285 285 285 286 286 288 290 290 289 290 290 290 285 284 284 282 283 282 281 282 278 278 280 277 275 272 272 272 271 272 273 276 277 278 283 289 291 292 292 293 293 294 293 294 294 293 293 293 292 292 293 293 293 292 291 290 290 291 290 291 292 291 291 291 291 290 292 292 292 292 291 290 289 289 288
285 283 285 283 282 283 283 284 285 282 282 283 283 283 284 283 284 288 291 292 291 289 286 287 286 286 284 282 280 279 280 280 280 280 277 276 274 274 274 271 270 273 274 278 281 282 287 291 292 292 293 293 293 294 293 293 292 293 294 293 293 293 293 293 292 291 291 290 290 291 290 290 291 291 291 291 291 291 291 291 291 290 290 290 289 289 288
285 285 282 281 283 282 282 281 282 282 283 284 283 283 283 285 286 287 290 292 291 286 285 286 284 283 282 278 278 277 279 282 280 277 276 275 277 275 272 273 272 275 276 281 287 289 291 292 293 293 293 293 293 294 294 294 294 294 293 293 293 293 292 292 291 291 291 291 290 288 290 290 291 291 291 291 290 290 290 290 290 290 290 289 289 289 288
283 282 281 281 284 286 285 285 285 285 286 287 285 285 287 286 288 291 293 292 287 286 285 284 284 281 278 277 278 280 282 280 278 278 278 277 278 277 274 276 277 279 285 288 288 289 291 293 293 293 294 293 293 294 294 294 294 293 293 292 292 292 292 291 291 291 291 290 291 291 291 291 291 291 290 290 290 289 288 288 288 289 289 289 289 289 289
Wind_Speed
16 17 16 15 13 11 10 10 10 9 8 1 2 1 2 2 3 1 2 3 3 7 4 2 3 3 4 4 9 9 10 10 9 10 11 7 2 3 5 7 5 7 7 6 4 3 2 2 1 2 1 3 10 4 12 11 9 7 3 8 3 5 1 2 6 3 6 4 1 5 10 9 4 1 2 5 3 6 8 5 6 7 3 4 1 4 1
16 16 16 15 13 11 10 9 9 8 6 1 3 2 1 2 2 2 2 3 4 7 5 6 6 5 5 6 9 6 8 9 9 9 11 5 3 6 5 5 11 5 10 5 2 2 1 2 1 2 2 2 7 9 9 13 6 7 5 6 5 2 2 5 4 1 3 1 1 2 0 4 3 3 3 3 3 4 2 5 2 7 6 8 9 5 3
17 16 14 14 14 12 10 10 11 9 7 5 1 2 2 4 3 3 1 4 7 7 0 1 3 5 6 6 9 8 7 8 14 13 12 10 10 5 5 6 4 2 3 3 2 0 4 1 3 2 1 2 3 5 8 11 5 8 7 10 3 3 3 4 5 7 6 5 9 7 7 10 3 4 5 3 5 5 4 7 2 5 1 4 6 3 2
18 16 14 14 14 14 13 11 10 8 7 7 1 3 3 2 4 1 1 3 6 4 3 2 1 2 3 5 9 10 9 9 10 14 15 16 12 10 4 1 5 3 1 0 2 2 2 4 2 1 2 3 2 3 10 4 5 8 10 15 9 3 1 1 4 6 7 2 0 2 6 2 3 4 5 2 1 2 4 6 6 7 4 5 1 14 14
17 16 14 15 14 13 12 9 9 9 8 7 1 2 2 2 2 2 3 3 1 3 4 4 3 3 2 2 3 4 6 7 7 6 4 6 7 4 8 3 2 1 2 2 1 3 3 3 3 2 3 2 2 9 7 4 6 10 12 12 6 3 5 3 4 8 9 6 1 1 2 4 4 5 5 3 2 5 7 9 6 7 11 3 2 18 19
16 16 14 14 14 14 13 14 12 11 10 7 1 1 1 2 0 0 2 1 4 4 6 7 7 7 5 5 3 7 9 7 4 6 2 7 1 1 3 0 2 6 5 2 0 2 1 1 1 2 1 3 6 8 5 2 3 10 6 10 6 6 6 4 4 5 2 3 3 5 4 4 2 3 3 4 4 2 6 3 7 11 9 10 15 16 19
16 16 15 13 13 14 14 14 13 12 12 6 1 2 1 2 3 3 4 2 2 4 2 3 5 7 6 4 6 9 8 10 6 3 4 5 3 0 1 2 3 3 4 4 2 0 1 1 1 0 2 3 4 3 6 6 8 8 5 6 6 5 3 4 3 2 7 8 5 7 11 4 8 10 9 3 3 5 5 6 13 7 9 19 22 16 18
16 15 16 16 15 15 15 15 14 13 15 4 1 3 1 2 3 3 3 3 4 5 4 3 5 7 8 5 5 5 6 10 8 3 1 1 5 2 0 3 3 2 3 3 2 3 4 2 0 1 2 4 2 1 0 4 11 1 9 3 5 10 6 4 2 3 4 7 6 8 9 8 6 8 12 13 8 6 3 8 7 15 12 14 18 14 10
17 17 15 15 15 15 15 14 13 12 12 2 2 2 3 2 3 3 3 4 3 4 3 4 5 4 3 6 6 4 5 5 1 2 4 4 3 1 1 1 5 3 1 2 5 11 9 6 5 3 2 1 0 3 3 4 6 10 3 5 4 10 3 2 1 5 3 4 6 5 9 11 10 8 13 14 9 5 1 6 2 8 14 17 16 13 6
18 18 16 15 15 16 16 14 12 10 9 2 3 2 2 3 5 5 3 2 4 2 2 4 3 4 4 2 2 2 3 5 7 4 5 9 7 5 4 2 2 2 1 5 8 11 12 11 4 2 3 2 1 1 3 6 4 2 3 1 9 5 4 1 2 7 2 5 1 1 6 5 4 7 9 9 3 1 3 5 6 11 26 16 14 13 13
17 17 16 16 17 17 16 14 13 10 4 4 4 4 4 4 6 4 2 3 2 1 3 3 3 2 5 4 7 5 4 5 2 4 2 1 2 2 4 4 2 4 3 6 5 1 2 1 2 1 1 1 2 2 5 11 8 6 3 1 1 8 10 3 2 6 3 7 3 2 4 3 2 4 7 3 1 2 8 5 6 6 2 7 9 17 16
16 15 15 17 17 16 15 14 12 11 5 2 3 4 3 4 6 4 2 2 3 1 1 4 4 5 8 10 8 7 6 4 3 2 6 3 5 5 4 4 1 3 3 1 2 1 3 3 2 1 1 2 5 8 9 5 9 3 4 5 6 9 8 3 1 6 1 3 3 4 2 3 2 4 4 10 11 10 18 14 11 8 13 20 20 18 16
15 15 16 17 16 16 15 14 13 12 8 3 2 5 2 4 5 4 3 2 4 2 5 5 5 10 9 8 8 7 6 5 6 6 7 7 6 5 3 3 4 5 3 4 8 2 1 2 2 1 2 4 7 2 7 9 8 7 7 2 9 7 10 5 5 2 2 4 2 4 1 2 1 2 2 2 3 2 16 15 11 6 10 13 17 17 17
15 16 17 16 16 16 15 14 14 12 11 6 3 4 5 4 4 3 2 2 4 2 4 9 7 5 7 8 8 7 6 8 6 5 5 4 6 8 7 6 8 2 5 0 1 3 5 5 2 3 4 4 4 2 3 5 5 12 8 8 1 13 5 8 3 1 5 1 4 2 0 0 3 1 1 1 2 3 3 8 2 3 8 14 16 16 17
17 17 17 16 16 16 15 15 14 13 12 10 3 5 5 4 4 3 2 3 5 5 4 5 1 6 8 7 6 5 5 5 4 5 3 1 3 4 5 6 1 5 3 1 1 2 2 1 2 3 3 4 2 4 2 2 4 7 8 6 6 2 10 4 8 1 4 7 4 2 1 1 4 6 4 6 3 1 6 8 5 6 2 9 18 18 19
18 18 18 17 17 16 16 15 14 14 13 12 4 5 7 4 5 4 4 4 4 7 3 8 8 6 6 5 7 10 5 2 2 3 2 2 5 3 4 6 4 7 3 2 2 3 2 2 2 3 2 3 1 2 1 2 4 4 7 8 10 10 8 6 10 4 3 2 5 3 3 3 4 9 6 5 3 10 8 7 2 2 3 8 16 19 18
17 17 17 18 17 17 16 16 15 14 13 13 6 6 5 0 2 3 4 3 2 6 12 10 6 5 6 5 5 3 1 2 2 2 3 3 1 1 5 2 2 6 7 3 0 2 3 3 2 1 1 0 3 3 2 3 1 2 6 7 11 9 4 6 7 4 1 4 3 3 1 1 4 5 3 5 6 3 3 1 6 9 9 10 14 20 19
17 18 18 18 17 17 17 16 16 15 13 13 7 6 7 5 3 3 4 4 3 6 4 2 2 6 4 3 5 6 3 1 1 2 2 3 3 2 1 4 3 2 4 1 2 4 2 2 3 2 1 2 0 2 3 4 1 2 1 2 2 4 4 5 8 5 4 6 1 2 2 3 1 4 5 8 6 5 4 7 5 14 14 13 14 16 17
17 17 18 18 17 17 17 16 16 15 15 14 8 7 4 2 4 3 5 4 2 5 8 3 5 10 10 6 7 6 3 2 3 0 1 3 1 3 2 1 3 1 3 2 3 2 2 0 0 2 3 1 1 3 1 3 1 2 1 5 3 3 3 1 4 5 5 2 5 2 2 3 1 0 7 7 5 3 7 4 6 18 17 13 14 15 14
18 18 18 18 18 17 16 16 16 16 15 15 8 5 9 10 6 4 4 6 2 8 14 13 4 7 4 4 5 6 5 2 4 4 2 1 3 4 2 1 3 2 3 3 2 1 3 2 1 1 2 1 1 3 4 2 1 1 0 1 4 1 3 2 3 1 3 3 4 3 4 2 2 7 3 0 2 4 3 7 8 14 19 15 13 12 12
18 19 18 19 18 17 17 16 16 16 15 14 8 5 8 2 2 3 2 2 5 8 10 5 5 11 8 8 10 13 7 9 5 3 2 2 3 4 2 1 5 2 3 3 5 2 3 1 2 1 2 3 1 3 5 3 3 2 1 1 3 2 4 0 1 1 5 2 3 3 1 2 1 5 6 4 3 7 10 13 12 7 13 16 11 10 10
19 19 20 19 18 18 17 17 17 16 15 13 10 2 6 5 4 4 4 3 5 7 9 11 8 12 14 15 16 15 14 15 15 9 4 6 1 3 1 1 1 2 1 2 3 2 1 2 1 2 2 2 3 4 3 5 2 1 3 3 4 2 1 4 5 1 1 3 2 1 3 1 2 3 3 3 3 8 10 11 18 17 11 11 13 13 12
19 19 19 19 19 18 18 17 16 16 15 13 8 2 7 9 8 4 5 5 4 7 8 11 11 11 10 12 18 17 16 14 13 9 7 5 4 2 0 4 4 1 0 1 3 4 4 6 2 4 3 0 6 4 2 2 4 0 2 4 2 2 3 3 6 4 6 8 5 3 3 5 8 7 5 10 9 6 9 12 12 7 12 13 13 13 14
19 19 19 19 19 19 18 18 17 16 15 13 9 5 7 5 6 7 4 4 2 8 6 3 3 7 9 14 10 7 6 7 10 15 8 3 1 4 3 1 1 2 1 1 5 5 3 3 3 3 4 2 3 4 5 3 3 3 5 1 1 2 2 1 6 5 2 3 2 4 5 4 8 11 8 8 6 8 9 9 9 11 11 11 12 12 14
20 20 20 20 20 20 20 18 18 16 15 16 11 6 7 7 3 3 2 4 4 3 3 10 5 8 5 10 8 1 1 8 12 9 2 1 4 1 1 3 2 0 3 2 2 5 3 3 1 3 5 1 3 2 0 7 3 2 5 0 2 1 1 7 3 5 3 5 4 5 5 5 4 7 11 10 9 9 7 8 9 11 11 12 13 14 15
22 21 22 21 19 19 19 19 17 15 14 15 12 7 5 7 3 1 3 4 4 3 3 4 10 13 8 13 9 8 7 9 4 2 3 4 3 1 1 2 3 3 2 3 4 6 3 4 3 2 5 1 2 3 3 1 6 2 6 3 3 5 1 3 2 5 8 10 7 9 11 10 7 6 7 8 10 13 12 13 14 14 15 15 12 12 13
23 23 23 22 22 22 20 19 19 17 16 15 9 6 7 7 5 6 4 1 1 2 2 4 6 11 11 14 10 7 4 7 7 8 9 10 10 8 6 5 3 4 6 6 4 5 3 3 5 4 3 2 2 3 3 4 4 3 2 1 2 6 3 6 10 10 8 7 10 12 10 5 4 6 10 11 11 14 15 14 14 15 15 15 16 13 12
23 23 24 23 23 22 22 21 18 16 15 15 9 8 7 6 5 6 6 5 1 1 2 5 7 11 13 7 7 5 6 7 7 7 7 9 10 10 9 7 5 6 5 6 7 6 4 8 5 0 2 1 5 4 2 2 3 5 6 4 1 4 9 9 9 9 7 6 7 2 10 10 7 9 9 12 11 14 15 15 14 14 13 15 17 17 15
24 24 23 24 23 23 22 21 18 15 15 11 7 8 5 7 7 6 7 5 4 2 3 6 6 4 2 7 10 7 6 6 7 7 7 9 9 8 7 7 6 1 4 5 4 3 4 1 1 3 2 2 6 1 4 5 3 2 3 8 4 1 2 3 8 10 8 8 7 9 10 11 9 11 11 11 11 13 13 13 13 13 14 14 15 15 17
24 25 25 25 25 23 22 19 17 14 12 6 3 2 3 1 2 5 6 6 5 2 2 5 6 4 4 3 4 5 4 7 7 9 8 7 7 7 6 6 5 4 5 3 3 5 0 3 2 3 4 3 4 1 4 0 3 0 4 6 2 7 5 3 1 11 9 7 8 9 13 11 10 10 10 10 11 14 12 13 14 14 14 14 15 14 13
27 27 26 26 24 23 22 20 16 11 6 2 1 2 2 1 0 1 5 3 5 2 1 1 5 5 7 4 1 3 4 4 5 5 4 4 3 3 3 3 4 4 7 6 6 1 2 5 2 4 3 6 4 3 3 3 2 2 6 5 3 7 7 8 7 10 15 12 11 11 11 11 9 11 10 10 9 12 12 11 12 13 14 13 14 13 12
27 28 27 26 25 23 22 19 15 10 4 3 2 3 2 1 1 3 2 4 3 2 0 3 4 3 2 4 2 2 1 1 0 2 3 3 4 5 6 5 2 3 3 3 1 4 4 1 4 3 4 5 6 3 3 4 4 0 2 4 5 7 9 11 11 11 12 14 16 14 11 8 9 11 8 10 12 12 13 12 12 13 14 12 11 11 12
28 28 26 25 26 24 22 17 13 6 5 7 11 14 19 22 20 15 5 1 1 2 1 0 2 2 1 4 3 4 2 2 3 3 2 2 1 3 3 5 5 5 4 6 4 3 0 2 1 6 6 3 4 3 3 4 1 0 1 4 6 9 10 9 9 9 11 10 12 15 12 9 8 12 11 11 12 13 13 13 13 12 12 13 13 12 10
28 27 27 26 25 24 20 16 13 8 3 2 5 4 7 14 13 9 5 3 1 1 0 0 1 2 4 4 4 4 2 1 1 1 2 5 0 4 2 3 5 4 5 5 2 4 3 5 5 2 3 5 3 5 4 1 1 3 5 6 8 10 10 10 9 8 5 6 6 9 11 10 11 12 12 12 12 11 11 10 12 14 13 13 12 10 11
28 28 27 27 25 22 20 13 0 3 3 4 4 6 1 2 8 11 11 4 2 1 0 2 1 1 3 3 1 4 1 3 3 1 2 2 2 2 2 4 5 6 3 3 6 2 2 2 1 5 1 2 4 2 1 5 4 6 7 7 7 10 10 9 4 6 8 8 9 10 12 12 14 12 12 12 12 12 12 11 10 13 13 11 11 11 12
28 29 28 26 26 14 2 1 1 2 1 2 5 2 5 5 7 6 2 0 0 1 0 2 1 2 1 0 1 2 1 2 2 2 0 0 4 3 4 3 5 2 0 4 1 3 3 3 3 2 2 4 1 2 5 5 7 7 7 7 5 7 5 7 7 8 10 10 12 11 12 11 11 12 11 12 12 11 11 11 11 10 11 11 11 12 12
28 28 28 20 6 1 1 1 1 2 1 6 15 19 3 8 3 2 2 1 2 0 1 0 1 4 3 1 0 3 3 1 2 3 5 4 1 2 3 3 2 1 4 3 3 3 2 2 7 3 4 2 1 3 5 5 6 6 6 4 3 5 8 8 9 12 13 13 14 12 11 11 11 10 11 13 12 12 12 13 13 13 13 13 12 11 10
29 25 5 2 2 2 1 2 0 6 15 19 12 1 2 1 0 0 0 0 1 2 1 0 3 5 1 3 1 3 2 2 2 1 1 1 1 1 0 2 0 2 2 0 1 2 2 5 3 3 2 1 0 4 4 4 4 4 4 3 5 5 7 8 9 12 14 13 12 12 12 12 11 11 13 13 13 13 11 10 9 8 8 10 10 10 9
15 4 2 2 1 1 2 3 7 20 13 5 1 1 2 0 1 1 1 1 0 1 2 3 4 2 1 3 2 3 3 1 3 2 2 2 2 1 1 2 2 3 0 1 1 3 3 3 2 3 1 0 1 1 1 4 4 3 4 4 6 6 7 8 9 12 12 10 11 11 12 14 16 14 11 11 10 9 9 10 10 9 9 8 8 8 11
6 7 3 3 1 4 6 7 14 9 2 1 1 2 1 1 1 2 0 1 2 2 1 1 3 1 1 2 3 1 2 3 2 1 1 1 0 1 1 1 1 2 0 1 2 2 5 2 0 2 2 2 3 2 3 4 4 3 4 5 7 8 9 9 7 6 7 6 7 8 8 8 8 10 10 11 11 12 11 10 10 10 9 8 8 10 11
4 3 4 1 5 5 7 10 8 1 1 1 2 1 1 1 1 1 1 1 0 1 1 1 2 3 2 2 3 1 4 2 1 3 3 1 2 2 2 0 1 2 0 0 1 2 2 2 1 3 6 4 5 4 3 4 4 3 4 6 7 8 7 6 8 7 9 9 8 8 8 8 8 8 8 10 10 11 11 11 11 9 8 9 10 9 7
4 4 5 7 8 8 7 3 0 1 1 0 1 1 1 2 1 2 1 1 1 1 3 1 1 0 1 0 1 2 2 1 1 1 1 1 1 1 1 0 1 2 0 2 1 2 3 1 1 2 3 5 4 4 5 4 3 4 5 6 7 7 7 9 8 8 9 10 8 8 8 10 10 9 9 10 10 10 9 9 9 8 9 7 7 8 9
16 13 6 5 3 2 1 1 1 1 0 1 2 1 1 1 1 1 2 1 1 1 3 0 1 0 2 2 1 0 2 1 0 1 2 1 1 1 1 0 1 1 1 0 1 1 2 2 3 6 5 6 5 6 5 5 4 4 5 6 6 7 8 8 9 10 9 10 9 9 9 10 9 8 7 8 8 7 5 6 8 8 8 8 9 9 9
5 1 1 1 1 2 1 0 1 1 1 0 2 1 0 1 3 1 0 2 1 2 1 1 2 3 2 1 1 1 2 3 2 2 1 0 1 0 1 0 0 3 0 2 1 1 2 2 5 5 7 5 5 6 6 5 5 5 5 6 7 8 8 7 8 8 8 8 8 8 8 8 7 7 7 7 8 9 8 8 7 10 9 9 9 9 8
1 1 0 0 0 2 1 2 1 2 2 2 1 2 2 2 2 0 2 4 1 6 4 0 3 3 1 3 2 1 1 1 1 2 1 0 1 0 1 0 1 1 1 1 0 1 0 1 1 4 6 7 7 7 6 6 5 7 7 6 7 8 8 9 8 8 7 8 9 8 7 7 7 7 7 7 7 9 10 9 9 11 10 10 9 9 6
1 0 0 2 2 2 1 1 0 0 1 1 2 3 2 5 3 5 6 1 4 6 1 3 2 1 1 1 3 2 0 1 1 0 0 1 2 0 1 0 1 0 1 1 0 2 4 5 7 8 8 8 8 7 6 6 5 5 7 9 8 9 9 8 7 7 7 7 7 7 7 6 7 7 7 7 8 9 9 10 10 11 11 12 10 10 7
1 1 1 0 1 2 1 1 2 2 2 1 2 2 2 5 6 7 5 3 7 8 5 1 2 2 2 1 0 2 2 1 1 1 2 1 0 1 1 1 0 0 0 0 2 3 2 4 7 7 8 8 8 8 7 6 5 6 7 6 7 8 8 8 8 8 6 7 7 7 6 7 7 8 8 8 9 10 11 11 11 12 13 13 11 11 9
0 2 0 1 3 1 3 4 2 3 2 3 4 3 5 2 3 7 7 4 6 1 2 2 2 5 3 2 4 1 1 0 1 1 1 1 1 2 2 1 0 1 1 2 3 4 4 6 9 9 8 8 10 9 8 7 6 7 7 7 7 7 7 8 7 6 6 6 6 7 7 7 9 10 12 12 11 11 12 11 11 11 11 10 11 11 11
1 0 0 1 1 0 2 4 1 4 6 5 5 5 5 6 7 8 8 4 4 2 2 3 2 2 2 2 1 1 1 1 1 1 1 1 1 1 1 0 0 1 3 2 2 4 6 9 9 9 9 9 9 9 8 7 8 8 8 8 7 7 7 7 6 6 6 6 6 8 7 8 10 10 11 11 10 8 9 11 11 9 10 11 10 10 9
0 1 0 0 2 4 4 1 0 4 5 5 5 6 4 4 5 9 4 3 2 1 2 4 2 2 1 0 1 1 1 0 1 0 2 0 1 0 1 1 2 2 2 3 3 2 5 8 9 9 9 9 9 9 9 8 8 8 6 6 6 6 7 7 7 6 7 6 7 10 8 8 10 10 12 12 9 8 9 9 9 10 10 11 11 10 10
1 1 3 3 5 5 2 1 1 3 6 6 5 6 4 6 5 7 3 3 1 3 4 1 1 1 0 1 1 1 1 0 2 1 2 2 1 2 2 2 3 6 5 2 3 6 9 9 10 10 10 10 9 9 9 8 8 7 6 6 7 7 6 7 8 8 8 8 8 10 10 9 9 11 10 9 10 10 9 9 9 10 10 9 10 10 10
0 0 2 4 4 3 4 4 3 7 7 7 6 4 1 5 6 8 7 1 2 2 3 1 1 1 1 1 2 1 0 1 0 0 0 3 1 1 2 4 6 6 6 6 6 7 7 8 9 11 11 11 10 10 9 9 8 6 7 8 8 8 8 8 9 10 9 7 9 9 8 9 9 9 8 9 9 10 10 8 6 8 9 9 8 10 10
Wind_Direction
359 354 350 348 348 357 5 4 1 355 355 16 326 262 243 212 253 43 64 5 169 146 180 168 183 221 242 272 276 268 276 277 289 288 279 285 228 248 206 219 203 230 228 244 235 232 245 178 192 226 238 238 224 260 195 202 190 126 166 185 222 160 146 160 253 271 287 253 202 151 151 139 132 155 111 111 177 171 156 169 182 115 143 87 25 72 215
356 350 346 352 360 3 9 4 2 358 5 346 291 294 274 265 268 303 226 171 180 168 182 191 197 225 274 255 265 255 260 265 274 264 272 262 227 231 261 236 198 199 227 259 251 4 41 266 186 300 244 252 234 227 219 201 199 158 197 165 207 180 249 142 205 299 279 314 2 35 187 127 139 186 199 177 142 164 165 109 96 106 209 167 130 179 199
354 350 356 4 7 4 3 360 354 348 349 346 338 319 304 277 232 219 296 157 171 192 206 89 165 215 234 244 256 257 250 237 239 251 263 248 227 247 238 217 185 188 212 179 277 251 167 280 287 211 245 258 300 279 217 191 201 182 174 150 127 137 201 108 171 181 174 176 182 201 185 191 197 160 167 180 170 156 109 173 134 123 217 109 111 92 111
355 356 9 9 4 358 358 357 346 352 6 356 3 330 309 324 319 107 96 137 174 278 309 330 202 218 248 268 258 249 257 261 250 243 246 237 231 201 248 139 167 145 178 54 236 290 197 174 269 339 312 305 300 34 352 295 205 184 161 150 149 181 172 135 173 173 196 194 192 216 132 96 167 173 158 202 148 159 112 117 123 160 177 73 265 142 137
357 355 13 8 4 6 9 360 2 4 355 -0 4 296 263 306 267 344 101 98 181 242 250 263 232 228 219 216 268 239 252 290 290 238 292 220 194 194 210 205 161 200 99 199 321 230 282 269 260 261 281 237 262 324 306 262 239 180 154 153 102 118 223 221 196 232 189 207 13 336 108 149 176 143 175 98 116 140 135 153 202 158 102 20 116 144 134
357 354 8 7 358 0 8 10 8 358 349 336 255 311 246 295 68 0 274 284 178 191 260 238 253 251 273 268 289 275 287 290 282 317 247 325 328 96 326 328 171 178 174 137 117 321 292 331 247 300 306 334 342 350 326 304 228 173 178 152 122 133 203 259 150 240 7 2 57 63 58 50 93 120 156 166 120 131 145 207 154 153 147 165 170 162 143
355 357 359 4 360 0 1 3 358 353 345 339 125 303 244 251 297 269 287 302 28 231 271 245 237 257 230 257 252 273 273 277 262 254 326 330 290 346 209 284 269 212 146 120 174 277 26 324 299 6 320 33 356 353 332 338 317 171 176 167 139 90 272 258 167 95 18 7 14 79 88 76 53 37 33 37 136 176 145 160 165 168 151 148 159 168 158
355 357 355 355 357 -0 0 357 356 351 343 343 191 214 276 340 6 333 350 295 270 252 244 249 257 255 245 252 222 241 259 266 280 279 106 336 295 303 148 252 274 339 139 123 153 227 206 181 239 261 100 340 53 255 166 291 334 322 159 147 148 132 246 267 210 76 5 0 22 72 94 97 80 31 32 32 20 62 99 120 80 77 77 126 129 124 111
347 356 358 354 354 356 356 355 355 348 350 313 298 281 163 215 197 222 298 295 244 228 213 230 234 243 243 223 265 250 268 278 350 230 191 207 231 264 228 328 354 19 89 194 226 232 245 256 252 233 135 156 200 47 273 8 325 334 185 133 159 138 221 10 25 83 330 337 36 82 93 86 75 34 15 7 7 80 10 124 213 122 133 125 115 114 123
346 350 355 355 354 353 352 356 355 354 350 309 311 327 16 292 220 209 223 279 269 287 324 287 255 234 220 228 270 278 282 296 299 314 252 224 239 252 269 278 346 321 273 244 236 242 235 238 208 161 136 153 123 165 268 290 262 272 287 349 143 136 115 28 87 85 295 270 273 169 94 56 20 355 341 333 323 156 105 43 34 144 134 127 144 184 155
348 349 353 353 353 352 352 356 359 358 22 7 338 309 328 326 330 318 244 279 286 53 342 276 303 308 320 306 296 282 268 282 261 228 272 202 249 340 -0 336 298 253 214 240 242 234 323 162 159 60 94 128 143 181 256 264 239 220 232 88 74 123 119 120 284 114 246 294 336 349 70 169 217 315 316 241 254 281 96 54 55 12 31 171 158 140 134
350 353 352 350 351 354 354 356 355 356 6 300 303 293 267 294 295 266 325 309 276 43 333 278 294 307 299 299 294 282 279 280 286 306 268 277 294 315 313 287 220 277 244 135 321 246 249 214 76 19 205 92 71 6 300 312 330 277 195 157 115 113 101 111 153 97 221 323 20 57 201 224 300 300 10 74 78 95 87 67 44 70 94 100 104 117 129
353 350 349 349 352 353 353 351 354 351 353 329 301 309 285 297 290 301 297 254 273 298 311 276 279 284 287 303 300 281 290 303 284 267 257 265 275 263 226 228 208 234 64 35 283 239 78 45 5 315 5 26 73 284 299 355 349 358 37 334 124 126 116 145 53 91 44 33 18 171 240 256 280 312 291 62 107 55 81 54 21 60 102 112 116 126 124
348 346 346 349 350 349 349 350 348 349 345 347 305 275 283 287 314 298 268 302 276 228 256 291 290 284 299 300 298 305 315 295 286 286 267 225 230 254 255 225 239 231 104 117 45 68 40 25 32 11 347 13 33 350 287 272 17 25 7 8 21 126 101 105 81 34 119 140 50 58 351 203 32 1 286 105 116 47 1 117 50 3 125 129 124 120 120
347 344 344 347 348 347 347 346 347 347 342 342 292 285 279 272 263 272 281 248 280 275 195 248 259 288 295 299 305 288 276 269 288 279 234 241 251 227 223 232 91 63 63 53 52 49 131 132 41 63 344 79 177 232 320 3 322 13 3 41 22 139 127 216 105 334 117 133 93 38 27 224 234 226 219 187 178 210 109 108 90 328 27 134 130 131 130
348 346 345 345 345 345 343 343 344 345 341 341 304 296 286 264 255 248 274 300 296 305 215 210 243 280 293 295 306 301 281 264 240 248 223 216 224 252 232 225 153 121 85 234 140 96 91 102 175 104 179 164 191 111 311 351 359 335 357 27 65 39 78 119 113 152 92 75 126 171 151 242 195 202 212 201 153 136 125 68 128 265 164 155 139 135 141
345 343 341 342 343 342 341 342 342 342 341 345 328 316 286 251 314 315 312 286 218 248 278 285 289 251 262 282 283 286 140 242 236 64 352 325 321 300 301 358 104 121 190 122 30 74 50 72 100 141 279 246 117 177 122 63 25 310 320 17 39 57 20 61 60 96 115 127 92 161 198 173 232 186 163 170 143 113 50 156 230 181 175 158 153 145 148
343 341 341 340 340 339 338 339 339 339 339 342 329 314 288 294 245 272 275 248 290 281 256 218 33 317 290 250 301 295 292 282 299 332 265 293 329 330 314 44 13 311 163 109 132 80 89 97 114 153 139 271 103 66 118 150 95 225 104 91 31 30 20 42 139 143 109 97 83 30 327 288 243 186 136 145 136 88 124 205 222 158 160 164 157 153 148
340 337 338 339 337 336 335 334 336 336 338 338 335 305 259 263 298 273 269 270 291 281 260 246 280 262 266 275 253 261 240 267 340 111 307 2 308 249 324 306 173 158 188 197 73 97 112 349 34 133 124 317 29 134 149 63 205 303 107 90 46 17 76 16 57 90 124 147 107 174 223 236 155 293 139 153 116 129 204 242 145 146 151 159 155 154 153
337 338 337 336 335 332 331 331 332 333 334 338 344 299 284 291 282 252 297 324 285 275 290 284 203 237 223 248 282 281 293 285 193 193 171 160 223 140 34 15 243 136 49 63 58 153 104 179 228 150 61 143 240 147 76 86 88 135 235 191 112 201 97 149 136 181 61 43 83 103 162 221 132 126 76 162 138 229 178 122 129 144 144 149 153 153 153
336 336 336 333 332 330 328 329 328 329 330 331 339 326 315 284 307 332 359 324 305 303 296 269 205 224 229 245 237 247 233 246 231 284 260 223 223 104 121 196 203 148 175 143 150 210 139 138 235 198 196 128 219 61 145 139 48 342 126 170 119 209 83 149 301 190 141 140 158 195 255 189 248 153 176 199 209 148 146 131 125 143 146 146 146 156 137
333 334 334 332 331 328 326 326 325 325 326 324 328 310 275 275 319 314 317 293 249 223 248 282 292 273 250 241 249 241 239 240 241 216 293 314 286 161 208 229 226 166 203 126 54 80 53 153 103 77 119 93 19 119 152 75 113 271 2 41 81 254 153 189 155 273 141 185 185 333 355 336 322 135 131 100 104 133 145 144 147 148 159 147 146 146 134
331 331 330 330 329 328 327 324 323 321 320 320 319 227 272 300 304 321 322 287 251 256 262 275 280 268 255 232 228 232 228 234 251 264 206 182 319 316 64 22 348 260 109 105 159 154 168 123 166 166 88 129 146 108 58 126 155 111 78 336 126 37 106 96 78 92 97 54 51 76 38 70 72 56 92 116 114 102 119 128 128 138 141 151 146 139 138
328 327 327 328 326 325 325 325 321 318 316 314 311 283 285 264 282 323 303 235 287 305 306 218 333 352 345 335 315 188 216 244 226 237 252 148 108 317 329 276 233 21 5 252 176 136 189 122 168 127 108 214 96 88 127 78 73 150 106 51 349 253 279 33 115 167 73 78 351 61 85 68 87 93 71 69 80 112 117 117 120 132 133 125 128 134 136
327 327 327 324 323 322 324 324 320 316 313 311 307 276 275 281 255 209 317 345 340 23 323 313 294 226 305 306 293 14 191 211 202 201 215 79 93 126 243 267 208 263 267 280 81 62 53 104 74 59 109 225 110 45 129 109 132 150 73 159 93 338 144 79 68 70 82 132 124 90 77 69 73 94 107 100 96 87 86 102 112 117 119 122 129 132 134
327 326 326 323 319 317 317 317 316 311 309 310 308 292 280 265 253 316 344 265 241 252 300 310 289 311 343 354 345 299 316 18 11 355 349 24 34 78 264 344 13 14 54 52 91 110 104 59 71 83 93 14 91 120 52 40 141 114 113 195 196 163 59 130 208 106 86 91 100 104 80 64 57 74 74 101 113 110 108 112 117 121 124 127 128 132 136
324 324 321 319 317 319 316 313 315 314 312 311 304 273 261 271 226 196 202 206 344 347 345 282 288 302 337 328 286 305 340 26 31 30 21 17 25 22 45 40 44 9 42 39 42 104 69 78 77 64 70 77 82 83 99 41 58 75 72 13 26 67 87 126 108 117 161 168 168 145 125 138 114 107 118 114 114 115 118 120 123 128 131 132 130 129 131
321 320 319 318 316 314 314 314 311 310 309 310 299 276 253 255 237 198 205 216 188 154 242 283 298 297 304 263 290 323 346 29 39 45 34 27 30 33 34 32 41 44 10 67 40 33 48 75 85 270 80 8 57 33 9 113 58 42 33 340 314 142 176 159 155 158 182 157 155 56 100 104 120 129 125 120 120 121 125 129 131 131 132 134 134 134 133
318 317 315 315 313 312 312 310 308 310 311 318 300 297 275 232 230 205 201 193 213 287 268 271 286 325 18 307 305 335 355 29 35 36 42 25 27 28 36 38 43 57 79 67 99 97 87 99 162 77 45 201 95 65 36 30 45 56 301 305 295 201 106 108 115 77 62 102 121 126 122 130 133 130 126 126 126 120 121 125 127 130 133 133 131 136 137
315 314 314 313 311 310 308 303 305 307 314 337 334 1 15 333 183 190 196 194 183 215 330 358 340 265 301 311 312 327 330 5 19 29 28 20 17 21 25 37 20 35 80 102 124 71 332 94 342 356 349 20 107 144 75 96 78 288 327 332 23 71 66 49 103 132 139 128 110 103 105 105 112 116 116 119 127 122 124 130 132 132 132 134 133 135 137
315 314 312 311 309 305 302 302 298 301 323 309 8 38 46 16 285 72 135 188 205 158 177 160 241 291 323 267 265 321 324 347 16 12 360 351 344 5 344 71 39 58 47 15 42 60 73 20 41 346 339 36 96 81 141 111 94 4 330 341 42 87 82 82 72 100 114 111 103 95 97 108 110 102 101 115 117 116 118 122 125 127 130 133 133 135 135
314 313 311 309 305 303 299 296 296 293 220 169 154 181 191 194 177 198 158 29 16 50 90 339 326 343 278 314 301 286 347 305 37 27 341 13 1 2 11 54 40 29 106 103 159 51 31 347 80 19 41 343 59 86 51 57 74 121 321 37 62 86 97 99 99 99 105 113 107 95 98 114 128 125 133 128 118 115 119 122 124 126 127 125 125 128 134
314 312 309 306 302 299 294 287 283 266 200 235 252 267 273 272 265 255 267 311 60 208 145 78 239 255 314 264 322 330 356 19 14 36 357 326 354 24 17 349 7 26 11 80 4 91 223 90 351 54 341 24 71 82 66 45 55 333 60 85 88 94 92 93 99 106 118 125 133 143 153 146 128 116 117 117 117 119 124 127 128 126 126 129 130 131 130
314 311 308 303 299 296 293 287 290 261 251 304 308 254 250 232 248 248 147 151 146 217 94 143 306 318 266 305 52 288 21 81 303 42 28 309 164 67 333 24 359 73 346 70 327 60 359 65 61 105 346 18 34 75 67 46 43 99 86 93 101 99 101 100 104 101 84 74 63 98 114 119 116 113 114 116 118 118 121 125 132 133 135 136 137 137 140
314 310 305 302 298 295 299 296 130 120 203 241 243 260 289 188 165 147 152 150 96 333 22 272 173 320 328 354 33 275 316 79 20 335 121 301 58 93 7 53 337 67 324 71 42 43 44 34 174 66 352 313 42 70 161 160 133 107 107 103 107 109 107 99 81 102 101 99 103 108 115 121 123 126 130 130 128 133 134 136 140 140 140 141 138 142 146
313 308 305 302 300 299 290 107 103 105 347 246 241 266 35 121 121 144 164 51 139 164 143 258 23 251 152 170 343 274 332 52 300 0 0 296 356 7 86 103 58 340 346 71 90 358 33 308 70 27 305 65 225 183 161 161 133 127 124 129 136 123 128 131 128 118 113 118 118 121 123 126 130 133 135 136 138 142 143 141 143 145 140 139 144 144 144
312 306 305 301 295 74 338 225 254 151 273 273 279 291 277 119 42 75 32 6 318 92 180 197 0 249 171 223 250 281 67 81 351 35 342 31 303 293 49 44 87 317 37 9 27 63 328 26 92 69 23 106 227 158 141 154 129 131 140 141 105 96 111 115 125 123 119 123 126 132 135 134 134 138 142 145 152 151 153 154 156 155 154 150 147 146 142
311 307 298 9 37 25 348 319 27 303 323 303 311 23 48 0 122 326 5 27 266 100 313 86 250 258 330 80 341 254 70 289 47 107 313 260 48 336 32 93 220 82 48 37 342 182 75 34 50 91 35 343 156 143 146 139 148 136 132 120 117 121 127 128 138 131 130 134 139 147 143 142 143 152 151 154 156 158 157 149 142 142 143 145 142 134 130
314 314 27 19 90 265 201 247 335 330 317 278 63 55 322 23 50 3 260 219 45 274 264 143 253 214 75 52 289 283 121 125 37 29 99 281 100 306 20 79 302 72 19 58 280 61 60 5 9 34 74 315 88 166 145 136 114 127 132 135 136 139 134 140 151 148 155 161 155 156 154 155 156 155 156 151 148 143 139 139 137 141 145 139 129 130 136
10 11 358 340 305 253 288 312 339 320 319 38 322 101 294 319 96 280 287 51 319 277 111 278 230 186 183 165 146 320 320 72 63 358 157 309 308 131 260 90 265 92 198 125 233 63 112 134 284 82 227 242 209 235 149 137 125 122 124 140 144 146 145 151 150 138 126 126 140 142 136 138 145 147 149 147 143 139 140 142 143 144 144 135 130 137 143
14 332 340 314 294 319 308 317 322 322 50 40 2 356 62 329 290 201 40 20 162 241 205 184 -0 16 334 64 73 107 286 87 178 136 113 135 249 77 52 117 231 87 315 314 267 81 86 84 94 178 218 209 184 199 171 124 128 122 131 148 148 145 141 132 131 130 129 130 133 134 135 135 135 137 137 138 138 141 144 146 148 147 135 132 140 141 132
287 268 259 284 285 281 299 308 206 28 0 121 118 288 228 221 319 359 126 135 255 282 312 70 9 117 306 77 218 136 289 215 110 100 103 59 304 104 205 263 15 107 189 237 144 71 82 98 181 249 240 207 200 180 153 147 140 134 139 138 137 133 134 137 135 134 137 139 141 139 140 142 141 140 143 141 143 144 144 141 141 139 140 136 123 122 132
286 271 241 273 300 281 217 355 297 106 125 346 41 358 338 34 237 173 280 270 293 103 262 251 234 175 306 48 354 279 187 234 101 333 72 225 289 50 78 14 60 53 228 310 73 64 67 176 210 241 202 181 184 167 165 159 159 140 143 140 136 140 138 139 143 146 147 140 143 141 145 143 143 142 135 130 124 119 122 135 142 139 132 130 131 134 138
274 192 146 233 288 282 88 284 277 50 348 64 109 202 274 338 306 355 333 272 296 316 249 132 255 99 242 298 151 308 4 355 41 76 27 287 82 333 51 41 211 243 32 41 47 98 208 208 207 203 176 165 169 164 162 157 152 140 137 149 148 145 144 136 133 134 132 130 132 135 132 135 136 130 128 127 133 136 142 142 139 135 135 132 131 140 144
31 358 277 349 325 271 65 298 325 118 202 254 155 202 160 183 244 200 224 247 149 255 275 132 118 95 190 269 32 333 120 233 296 95 249 64 44 335 103 277 252 30 90 229 356 342 0 275 264 148 165 165 172 171 162 159 156 153 154 151 148 144 143 144 140 134 138 140 142 135 135 139 139 140 140 145 142 140 140 143 147 140 141 134 134 134 148
33 185 70 91 304 299 127 217 59 345 284 170 214 197 195 239 190 252 255 227 289 288 267 252 63 82 247 267 131 224 0 85 50 307 135 68 99 268 244 254 75 72 12 46 100 209 221 220 180 182 174 166 167 167 158 164 157 147 146 155 157 154 154 143 138 134 136 132 133 128 131 133 136 136 152 157 147 142 141 146 149 144 140 135 143 145 153
318 310 189 126 120 271 108 163 234 202 185 242 223 190 222 248 227 246 268 271 276 250 240 224 124 177 176 272 42 339 14 62 101 270 68 52 202 262 356 91 282 223 117 277 251 252 256 223 188 177 165 161 161 162 163 163 154 155 158 152 150 153 150 140 139 141 142 130 131 132 137 143 145 149 148 155 151 144 144 148 149 144 145 149 151 145 148
275 259 74 141 227 200 181 242 216 295 245 210 242 256 245 241 344 309 279 249 258 240 79 38 18 348 14 310 88 165 234 57 78 305 150 178 29 40 14 28 296 253 172 168 234 221 214 185 173 171 169 164 161 163 165 163 165 161 156 155 153 149 146 145 145 146 136 133 143 145 142 143 143 151 152 154 144 142 147 149 151 146 141 139 143 146 150
224 180 165 209 221 237 254 253 220 251 275 294 303 312 315 327 292 273 280 284 244 222 168 124 183 102 273 263 85 45 357 339 84 257 0 36 88 216 146 225 293 317 275 186 222 219 195 169 164 159 156 158 164 163 167 170 167 166 165 162 161 157 151 150 154 153 145 139 146 143 146 151 144 146 144 141 134 142 149 146 144 143 143 144 147 148 153
200 315 333 39 353 304 265 263 153 277 308 325 359 321 308 308 288 284 265 273 254 73 20 34 46 95 241 100 324 12 253 287 148 8 59 296 208 201 71 329 241 190 252 232 214 196 150 148 149 154 162 161 164 165 166 172 169 171 169 160 153 152 158 157 155 157 154 151 160 146 147 143 141 141 146 150 143 140 145 143 146 148 151 151 150 153 157
249 167 232 185 176 222 52 83 167 324 318 305 310 295 312 300 280 280 278 257 342 44 41 172 215 93 14 22 43 54 257 191 65 149 162 211 211 116 164 198 244 214 231 238 179 150 151 157 157 159 161 164 166 168 169 169 174 167 154 157 162 163 163 159 160 164 164 164 155 136 142 150 155 153 155 136 124 135 144 149 153 154 154 157 158 157 160
119 195 254 277 258 231 200 234 261 244 245 258 275 250 308 291 290 290 303 205 90 114 227 240 90 77 71 200 224 199 0 46 90 25 0 276 158 133 219 208 231 216 192 130 136 157 151 159 162 162 165 164 168 168 168 170 173 150 155 162 167 170 173 165 165 167 164 157 148 148 154 155 154 148 142 130 124 132 144 161 169 161 157 162 167 166 162